Eureka, NV

4:14 AM PST on January 24, 2018 (GMT -0800)
Eureka

Weather History for KP68 - March, 2014

Change the Weather History Date:

Saturday, March 1, 2014

  Actual Average Record
Temperature  
Mean Temperature 40 °F 33 °F  
Max Temperature 48 °F 47 °F 63 °F (2016)
Min Temperature 31 °F 20 °F -3 °F (1993)
Degree Days  
Heating Degree Days 25 32  
Month to date heating degree days 25 32  
Since 1 July heating degree days 4829 5317  
Cooling Degree Days 0 0  
Month to date cooling degree days 0 0  
Year to date cooling degree days 0 0  
Moisture  
Dew Point 30 °F    
Average Humidity 71    
Maximum Humidity 96    
Minimum Humidity 45    
Precipitation  
Precipitation 0.04 in 0.03 in 0.22 in (1985)
Month to date precipitation 0.04 0.03  
Year to date precipitation 1.78 1.63  
Sea Level Pressure  
Sea Level Pressure 29.68 in    
Wind  
Wind Speed 6 mph (SW)    
Max Wind Speed 21 mph    
Max Gust Speed 26 mph    
T = Trace of Precipitation, MM = Missing Value Source: NWS Daily Summary

Daily Weather History Graph

Daily Weather History Graph

Search for Another Location

Airport or City:

Trip Planner

Search our weather history database for the weather conditions in past years. The results will help you decide how hot, cold, wet, or windy it might be!

Date:

Astronomy

Mar. 01, 2014 Rise Set
Actual Time 6:16 AM PST 5:36 PM PST
Civil Twilight 5:49 AM PST 6:03 PM PST
Nautical Twilight 5:18 AM PST 6:34 PM PST
Astronomical Twilight 4:47 AM PST 7:05 PM PST
Moon 6:13 AM PST (3/1) 6:28 PM PST (3/1)
Length of Visible Light 12h 13m
Length of Day
11h 19m
New Moon, 0% of the Moon is Illuminated
Mar 1
New Moon
Mar 8
First Quarter
Mar 16
Full
Mar 23
Last Quarter
Mar 30
New

Hourly Weather History & Observations

Time (PST) Temp. Windchill Dew Point Humidity Pressure Visibility Wind Dir Wind Speed Gust Speed Precip Events Conditions
12:53 AM 37.0 °F 29.3 °F 30.9 °F 79% 29.42 in - SSW 11.5 mph - 0.01 in   Unknown
1:53 AM 33.1 °F 27.7 °F 30.9 °F 92% 29.47 in - North 5.8 mph - N/A   Unknown
2:53 AM 33.1 °F 28.7 °F 30.0 °F 89% 29.49 in - NE 4.6 mph - N/A   Unknown
3:53 AM 33.1 °F - 30.9 °F 92% 29.53 in - Calm Calm - N/A   Unknown
4:53 AM 34.0 °F 28.8 °F 30.9 °F 89% 29.56 in - NNW 5.8 mph - N/A   Unknown
5:53 AM 32.0 °F 28.7 °F 28.9 °F 88% 29.61 in - Variable 3.5 mph - N/A   Unknown
6:53 AM 32.0 °F 28.7 °F 30.0 °F 92% 29.65 in - North 3.5 mph - N/A   Unknown
7:53 AM 37.9 °F - 30.9 °F 76% 29.66 in - Calm Calm - N/A   Unknown
8:53 AM 41.0 °F 33.5 °F 30.0 °F 65% 29.66 in - SSW 13.8 mph - N/A   Unknown
9:53 AM 43.0 °F 37.2 °F 28.9 °F 58% 29.68 in - SSW 10.4 mph - N/A   Unknown
10:53 AM 45.0 °F - 27.0 °F 49% 29.68 in - North - - N/A   Unknown
11:53 AM 44.1 °F 40.8 °F 26.1 °F 49% 29.68 in - West 5.8 mph - N/A   Unknown
12:53 PM 46.0 °F 41.9 °F 26.1 °F 46% 29.66 in - SW 8.1 mph - N/A   Unknown
1:53 PM 45.0 °F 38.2 °F 32.0 °F 60% 29.68 in - South 15.0 mph - N/A   Unknown
2:27 PM 46.9 °F - 27.0 °F 46% 29.74 in - West 12.7 mph - N/A   Unknown
2:34 PM 46.9 °F - 26.1 °F 44% 29.74 in - West 12.7 mph - N/A   Unknown
2:53 PM 45.0 °F 40.6 °F 26.1 °F 48% 29.68 in - WSW 8.1 mph - N/A   Unknown
3:53 PM 42.1 °F - 30.9 °F 65% 29.71 in - Calm Calm - N/A   Unknown
4:53 PM 36.0 °F 30.3 °F 32.0 °F 86% 29.78 in - SW 6.9 mph - 0.02 in   Unknown
5:53 PM 34.0 °F 28.0 °F 32.0 °F 92% 29.80 in - SSE 6.9 mph - 0.01 in   Unknown
6:53 PM 35.1 °F 27.9 °F 33.1 °F 92% 29.82 in - SSW 9.2 mph - N/A   Unknown
7:53 PM 35.1 °F 32.2 °F 33.1 °F 92% 29.80 in - South 3.5 mph - N/A   Unknown
8:53 PM 33.1 °F - 30.9 °F 92% 29.82 in - Calm Calm - N/A   Unknown
9:53 PM 34.0 °F 31.0 °F 30.9 °F 89% 29.82 in - Variable 3.5 mph - N/A   Unknown
10:53 PM 34.0 °F 28.0 °F 30.9 °F 89% 29.82 in - SW 6.9 mph - N/A   Unknown
11:53 PM 32.0 °F 26.4 °F 30.0 °F 92% 29.84 in - SSW 5.8 mph - N/A   Unknown